{"data":{"norad_id":57367,"intl_designator":"2023-099AR","name":"STARLINK-6215","alt_names":[],"object_type":"PAYLOAD","status":"ACTIVE","operator":null,"country":"US","launch_date":"2023-07-16","launch_site_code":"AFETR","launch_vehicle":null,"mission":null,"orbit_class":"UNKNOWN","rcs_meters":null,"size_class":null,"mass_kg":null,"dimensions":null,"purposes":["comms"],"wikipedia_slug":null,"has_3d_model":false,"image_url":null,"decayed_at":null,"tle_current":{"epoch":"2026-05-25T01:18:13.849344Z","epoch_age_seconds":66827,"freshness":"FRESH","line1":"1 57367U 23099AR  26145.05432696  .00000653  00000+0  33257-4 0  9991","line2":"2 57367  43.0016 151.8113 0001044 266.8441  93.2291 15.27577865158849","mean_motion":15.27577865,"eccentricity":0.0001044,"inclination_deg":43.0016,"raan_deg":151.8113,"arg_perigee_deg":266.8441,"mean_anomaly_deg":93.2291,"bstar":3.3257e-5,"rev_number":15884,"period_min":94.266880464388,"perigee_km":482.33918050931,"apogee_km":483.77179750101,"semimajor_km":6861.1924890052,"source":"CELESTRAK","updated_at":"2026-05-25T13:38:18.294095Z"}}}